EW8748 Weather Reports


Display with metric or nautical units.
time (UTC)temp
F
wind
direction
speed
MPH
gust
MPH
rain 1hr
in
rain 24hr
in
rain mn
in
humidity
%
barometer
mb
20260510045512 57 102 9.0 20.0 0.00 0.06 0.06 88 1014.6
20260510044511 56 49 6.0 12.0 0.00 0.06 0.06 89 1014.8
20260510043512 56 75 6.0 8.0 0.00 0.06 0.06 88 1015.0
20260510043021 56 107 3.0 8.0 0.00 0.06 0.06 88 1015.1
20260510040011 57 102 5.0 12.0 0.00 0.06 0.06 87 1015.0
20260510035019 57 87 8.0 15.0 0.00 0.06 0.06 86 1014.8
20260510034511 57 73 5.0 10.0 0.00 0.06 0.06 86 1015.0
20260510034020 57 102 6.0 12.0 0.00 0.06 0.06 85 1014.7
20260510032511 57 112 7.0 12.0 0.01 0.06 0.06 86 1014.7
20260510031513 57 359 7.0 13.0 0.02 0.06 0.06 89 1014.4
20260510031018 57 102 6.0 12.0 0.02 0.06 0.06 90 1014.3
20260510030511 57 95 7.0 14.0 0.02 0.06 0.06 90 1014.4
20260510024017 56 96 6.0 8.0 0.05 0.06 0.06 91 1015.6
20260510023019 56 118 4.0 7.0 0.05 0.06 0.06 90 1015.9
20260510022511 56 137 4.0 9.0 0.05 0.05 0.05 90 1016.4
20260510021511 57 115 3.0 6.0 0.04 0.04 0.04 88 1017.1
20260510020511 58 359 5.0 10.0 0.04 0.04 0.04 87 1016.6
20260510015511 58 112 3.0 12.0 0.02 0.02 0.02 86 1016.6
20260510015018 58 55 6.0 13.0 0.01 0.01 0.01 86 1016.7
20260510013516 58 87 6.0 12.0 0.01 0.01 0.01 85 1017.0
20260510013018 58 103 10.0 17.0 0.01 0.01 0.01 85 1017.0
20260510011511 57 42 5.0 9.0 0.00 0.00 0.00 86 1017.3
20260510010510 57 31 7.0 16.0 0.00 0.00 0.00 87 1017.5
20260510010011 57 73 7.0 13.0 0.00 0.00 0.00 89 1017.4
20260510005511 56 354 5.0 14.0 0.00 0.00 0.00 90 1017.6
20260510005017 56 45 8.0 16.0 0.00 0.00 0.00 91 1017.6
20260510004018 56 359 8.0 15.0 0.00 0.00 0.00 92 1017.6
20260510003511 56 25 7.0 15.0 0.00 0.00 0.00 92 1016.2
20260510003018 56 28 8.0 14.0 0.00 0.00 0.00 92 1014.9
20260510001511 56 84 8.0 18.0 0.00 0.00 0.00 92 1015.0
20260510001018 56 77 9.0 15.0 0.00 0.00 0.00 92 1014.8
20260510000015 57 58 6.0 12.0 0.00 0.00 0.00 92 1015.0
20260509235516 57 51 5.0 13.0 0.00 0.00 0.00 92 1015.0
20260509234514 57 83 6.0 15.0 0.00 0.00 0.00 92 1015.5
20260509234021 57 55 7.0 13.0 0.00 0.00 0.00 91 1015.7
20260509233515 57 90 8.0 17.0 0.00 0.00 0.00 92 1016.0
20260509232515 56 73 3.0 9.0 0.00 0.00 0.00 92 1016.8
20260509232022 56 100 5.0 12.0 0.00 0.00 0.00 92 1016.4
20260509231516 56 83 6.0 13.0 0.00 0.00 0.00 92 1015.9
20260509231022 56 77 7.0 14.0 0.00 0.00 0.00 92 1015.8
20260509230517 56 59 8.0 14.0 0.00 0.00 0.00 92 1015.7
20260509225022 56 69 9.0 17.0 0.00 0.00 0.00 92 1015.5
20260509224021 57 141 7.0 15.0 0.00 0.00 0.00 92 1015.7
20260509223515 57 62 7.0 16.0 0.00 0.00 0.00 92 1015.8
20260509223022 57 62 10.0 15.0 0.00 0.00 0.00 92 1015.9
20260509222514 57 62 10.0 15.0 0.00 0.00 0.00 92 1015.9
20260509222021 57 105 9.0 16.0 0.00 0.00 0.00 92 1016.0
20260509221022 57 103 9.0 18.0 0.00 0.00 0.00 92 1016.0
20260509220016 57 91 9.0 16.0 0.00 0.00 0.00 92 1015.9
20260509215516 57 63 10.0 15.0 0.00 0.00 0.00 92 1016.0
20260509215021 57 64 9.0 16.0 0.00 0.00 0.00 92 1016.1
20260509214515 57 35 9.0 17.0 0.00 0.00 0.00 92 1016.2
20260509212515 57 131 9.0 15.0 0.00 0.00 0.00 92 1016.3
20260509211515 57 112 8.0 17.0 0.00 0.00 0.00 92 1016.2
20260509210014 57 61 7.0 13.0 0.00 0.00 0.00 92 1016.4
20260509203514 57 90 9.0 14.0 0.00 0.00 0.00 91 1016.4
20260509202516 57 122 6.0 12.0 0.00 0.00 0.00 90 1016.5
20260509202021 57 64 8.0 15.0 0.00 0.00 0.00 90 1016.5
20260509201515 58 73 6.0 14.0 0.00 0.00 0.00 89 1016.3
20260509195021 58 62 6.0 12.0 0.00 0.00 0.00 88 1016.7
20260509194022 58 104 6.0 12.0 0.00 0.00 0.00 88 1016.4
20260509192514 59 94 9.0 13.0 0.00 0.00 0.00 87 1016.0
20260509191515 59 48 6.0 12.0 0.00 0.00 0.00 87 1016.7
20260509191022 59 102 3.0 8.0 0.00 0.00 0.00 87 1017.0
20260509184514 59 52 6.0 12.0 0.00 0.00 0.00 88 1016.1
20260509184021 59 73 3.0 12.0 0.00 0.00 0.00 87 1016.3
20260509183515 59 127 7.0 12.0 0.00 0.00 0.00 87 1015.7
20260509181514 60 97 6.0 13.0 0.00 0.00 0.00 86 1015.8
20260509181022 60 78 6.0 12.0 0.00 0.00 0.00 85 1016.1
20260509180515 60 115 11.0 20.0 0.00 0.00 0.00 84 1016.2
20260509175023 61 52 6.0 12.0 0.00 0.00 0.00 82 1017.2
20260509174514 61 77 5.0 9.0 0.00 0.00 0.00 82 1017.3
20260509172023 62 135 5.0 10.0 0.00 0.00 0.00 81 1016.4
20260509171516 62 89 6.0 12.0 0.00 0.00 0.00 80 1016.5
20260509165022 63 84 6.0 13.0 0.00 0.00 0.00 78 1015.9
20260509163515 64 79 7.0 14.0 0.00 0.00 0.00 76 1016.0
20260509162514 65 67 6.0 13.0 0.00 0.00 0.00 74 1016.0
20260509162022 66 94 6.0 12.0 0.00 0.00 0.00 73 1016.0
20260509160514 67 91 6.0 10.0 0.00 0.00 0.00 72 1016.0
20260509160014 67 68 7.0 12.0 0.00 0.00 0.00 71 1016.1
20260509155514 68 60 7.0 13.0 0.00 0.00 0.00 71 1015.9
20260509154022 68 97 7.0 12.0 0.00 0.00 0.00 71 1015.6
20260509153516 68 103 6.0 13.0 0.00 0.00 0.00 70 1015.7
20260509153022 69 53 5.0 13.0 0.00 0.00 0.00 69 1015.7
20260509152022 70 39 6.0 10.0 0.00 0.00 0.00 67 1015.7
20260509151515 70 68 5.0 12.0 0.00 0.00 0.00 67 1015.8
20260509150514 70 88 5.0 12.0 0.00 0.00 0.00 66 1015.8
20260509150014 70 84 7.0 10.0 0.00 0.00 0.00 66 1015.8
20260509145515 71 70 5.0 9.0 0.00 0.00 0.00 65 1015.8
20260509145021 70 66 4.0 10.0 0.00 0.00 0.00 66 1015.8
20260509143515 71 79 6.0 12.0 0.00 0.00 0.00 65 1015.9
20260509142515 71 93 4.0 10.0 0.00 0.00 0.00 64 1015.8
20260509142022 71 59 7.0 12.0 0.00 0.00 0.00 64 1015.7
20260509141022 72 88 5.0 10.0 0.00 0.00 0.00 63 1015.8
20260509140515 72 64 5.0 10.0 0.00 0.00 0.00 63 1015.8
20260509135023 72 92 6.0 12.0 0.00 0.00 0.00 61 1015.7
20260509134514 72 59 5.0 12.0 0.00 0.00 0.00 63 1015.8
20260509134021 72 64 7.0 12.0 0.00 0.00 0.00 63 1015.8
20260509132021 72 125 8.0 13.0 0.00 0.00 0.00 62 1015.9
20260509125514 73 100 5.0 9.0 0.00 0.00 0.00 62 1016.0
20260509125022 73 74 7.0 10.0 0.00 0.00 0.00 61 1016.1
20260509124515 72 55 5.0 13.0 0.00 0.00 0.00 61 1016.1
20260509124022 72 99 5.0 12.0 0.00 0.00 0.00 63 1016.1
20260509122022 72 118 6.0 9.0 0.00 0.00 0.00 63 1016.2
20260509120514 72 83 3.0 10.0 0.00 0.00 0.00 63 1016.1
20260509120014 71 104 4.0 10.0 0.00 0.00 0.00 64 1016.1
20260509115514 72 82 7.0 12.0 0.00 0.00 0.00 63 1016.2
20260509115023 72 86 4.0 12.0 0.00 0.00 0.00 63 1016.2
20260509113022 72 91 3.0 8.0 0.00 0.00 0.00 62 1016.4
20260509112514 71 91 4.0 9.0 0.00 0.00 0.00 63 1016.5
20260509111514 71 140 3.0 6.0 0.00 0.00 0.00 62 1016.3
20260509111021 71 87 6.0 10.0 0.00 0.00 0.00 60 1016.3
20260509110016 72 51 4.0 12.0 0.00 0.00 0.00 60 1016.3
20260509104023 71 82 5.0 10.0 0.00 0.00 0.00 61 1016.4
20260509102514 70 86 2.0 8.0 0.00 0.00 0.00 62 1016.5
20260509101514 69 118 5.0 12.0 0.00 0.00 0.00 62 1016.5
20260509100514 70 11 6.0 10.0 0.00 0.00 0.00 63 1016.5
20260509095514 69 9 5.0 9.0 0.00 0.00 0.00 62 1016.4
20260509094021 69 55 6.0 12.0 0.00 0.00 0.00 67 1016.3
20260509092514 69 118 4.0 8.0 0.00 0.00 0.00 67 1016.3
20260509092021 68 99 5.0 10.0 0.00 0.00 0.00 68 1016.4
20260509090514 68 61 6.0 9.0 0.00 0.00 0.00 68 1016.2
20260509085514 67 9 3.0 9.0 0.00 0.00 0.00 71 1016.2
20260509085022 67 43 3.0 9.0 0.00 0.00 0.00 70 1016.2
20260509084514 67 106 3.0 10.0 0.00 0.00 0.00 70 1016.2
20260509084023 67 106 3.0 9.0 0.00 0.00 0.00 71 1016.2
20260509083514 66 106 5.0 12.0 0.00 0.00 0.00 72 1016.2
20260509082022 65 106 4.0 10.0 0.00 0.00 0.00 73 1016.2
20260509081514 65 60 5.0 12.0 0.00 0.00 0.00 72 1016.1
20260509080515 65 87 5.0 9.0 0.00 0.00 0.00 72 1016.1
20260509080014 65 94 6.0 9.0 0.00 0.00 0.00 73 1016.1
20260509074022 64 115 5.0 12.0 0.00 0.00 0.00 72 1016.0
20260509073514 64 61 5.0 10.0 0.00 0.00 0.00 72 1016.0
20260509073022 64 119 5.0 9.0 0.00 0.00 0.00 72 1015.9
20260509072514 64 95 3.0 8.0 0.00 0.00 0.00 72 1015.9
20260509071514 63 105 5.0 10.0 0.00 0.00 0.00 75 1015.9
20260509071022 63 108 6.0 10.0 0.00 0.00 0.00 74 1015.8
20260509065513 62 112 3.0 8.0 0.00 0.00 0.00 79 1015.9
20260509065022 62 166 4.0 9.0 0.00 0.00 0.00 77 1015.9
20260509063021 62 128 2.0 7.0 0.00 0.00 0.00 80 1015.6
20260509062021 61 174 4.0 6.0 0.00 0.00 0.00 81 1015.7
20260509061514 61 147 2.0 6.0 0.00 0.00 0.00 81 1015.7
20260509061021 61 87 3.0 7.0 0.00 0.00 0.00 81 1015.5
20260509060014 61 91 1.0 3.0 0.00 0.00 0.00 81 1015.6
20260509055513 61 107 1.0 3.0 0.00 0.00 0.00 81 1015.7
20260509054023 61 158 0.0 1.0 0.00 0.00 0.00 80 1015.6
20260509053021 60 189 2.0 3.0 0.00 0.00 0.00 83 1015.7
20260509052513 60 185 0.0 2.0 0.00 0.00 0.00 83 1015.7